SCP
3 2 2 1 1 1 1 1 1 1 1 1 0 0 0 0 0 0 0 0 0 0 0 0 0 0 0 0 0 0 0 0 0 0 0 0 0 0 0 0 0 0 0
3 2 2 1 1 1 1 1 1 1 1 1 0 0 0 0 0 0 0 0 0 0 0 0 0 0 0 0 0 0 0 0 0 0 0 0 0 0 0 0 0 0 0
3 2 2 1 1 1 1 1 1 1 1 0 0 0 0 0 0 0 0 0 0 0 0 0 0 0 0 0 0 0 0 0 0 0 0 0 0 0 0 0 0 0 0
2 2 1 1 1 1 1 1 0 0 0 0 0 0 0 0 0 0 0 0 0 0 0 0 0 0 0 0 0 0 0 0 0 0 0 0 0 0 0 0 0 0 0
2 2 1 1 1 0 0 0 0 0 0 0 0 0 0 0 0 0 0 0 0 0 0 0 0 0 0 0 0 0 0 0 0 0 0 0 0 0 0 0 0 0 0
1 1 1 0 0 0 0 0 0 0 0 0 0 0 0 0 0 0 0 0 0 0 0 0 0 0 0 0 0 0 0 0 0 0 0 0 0 0 0 0 0 0 0
1 0 0 0 0 0 0 0 0 0 0 0 0 0 0 0 0 0 0 0 0 0 0 0 0 0 0 0 0 0 0 0 0 0 0 0 0 0 0 0 0 0 0
0 0 0 0 0 0 0 0 0 0 0 0 0 0 0 0 0 0 0 0 0 0 0 0 0 0 0 0 0 0 0 0 0 0 0 0 0 0 0 0 0 0 0
0 0 0 0 0 0 0 0 0 0 0 0 0 0 0 0 0 0 0 0 0 0 0 0 0 0 0 0 0 0 0 0 0 0 0 0 0 0 0 0 0 0 0
0 0 0 0 0 0 0 0 0 0 0 0 0 0 0 0 0 0 0 0 0 0 0 0 0 0 0 0 0 0 0 0 0 0 0 0 0 0 0 0 0 0 0
0 0 0 0 0 0 0 0 0 0 0 0 0 0 0 0 0 0 0 0 0 0 0 0 0 0 0 0 0 0 0 0 0 0 0 0 0 0 0 0 0 0 0
0 0 0 0 0 0 0 0 0 0 0 0 0 0 0 0 0 0 0 0 0 0 0 0 0 0 0 0 0 0 0 0 0 0 0 0 0 0 0 0 0 0 0
0 0 0 0 0 0 0 0 0 0 0 0 0 0 0 0 0 0 0 0 0 0 0 0 0 0 0 0 0 0 0 0 0 0 0 0 0 0 0 0 0 0 0
0 0 0 0 0 0 0 0 0 0 0 0 0 0 0 0 0 0 0 0 0 0 0 0 0 0 0 0 0 0 0 0 0 0 0 0 0 0 0 0 0 0 0
0 0 0 0 0 0 0 0 0 0 0 0 0 0 0 0 0 0 0 0 0 0 0 0 0 0 0 0 0 0 0 0 0 0 0 0 0 0 0 0 0 0 0
0 0 0 0 0 0 0 0 0 0 0 0 0 0 0 0 0 0 0 0 0 0 0 0 0 0 0 0 0 0 0 0 0 0 0 0 0 0 0 0 0 0 0
0 0 0 0 0 0 0 0 0 0 0 0 0 0 0 0 0 0 0 0 0 0 0 0 0 0 0 0 0 0 0 0 0 0 0 0 0 0 0 0 0 0 0
0 0 0 0 0 0 0 0 0 0 0 0 0 0 0 0 0 0 0 0 0 0 0 0 0 0 0 0 0 0 0 0 0 0 0 0 0 0 0 0 0 0 0
0 0 0 0 0 0 0 0 0 0 0 0 0 0 0 0 0 0 0 0 0 0 0 0 0 0 0 0 0 0 0 0 0 0 0 0 0 0 0 0 0 0 0
0 0 0 0 0 0 0 0 0 0 0 0 0 0 0 0 0 0 0 0 0 0 0 0 0 0 0 0 0 0 0 0 0 0 0 0 0 0 0 0 0 0 0
0 0 0 0 0 0 0 0 0 0 0 0 0 0 0 0 0 0 0 0 0 0 0 0 0 0 0 0 0 0 0 0 0 0 0 0 0 0 0 0 0 0 0
0 0 0 0 0 0 0 0 0 0 -0 0 0 0 0 0 0 0 0 0 0 0 0 0 0 0 0 0 0 0 0 0 0 0 0 0 0 0 0 0 0 0 0
0 0 0 0 0 0 0 0 0 0 0 0 0 0 0 0 0 0 0 0 0 0 0 0 0 0 0 0 0 0 0 0 0 0 0 0 0 0 0 0 0 0 0
0 0 0 0 0 0 -0 0 0 0 0 0 0 0 0 0 0 0 0 0 0 0 0 0 0 0 0 0 0 0 0 0 0 0 0 0 0 0 0 0 0 0 0
0 0 0 0 0 0 0 0 0 0 0 0 0 0 0 0 0 0 0 0 0 0 0 0 0 0 0 0 0 0 0 0 0 0 0 0 0 0 0 0 0 0 0
0 0 0 0 0 0 0 0 0 0 0 0 0 0 0 0 0 0 0 0 0 0 0 0 0 0 0 0 0 0 0 0 0 0 0 0 0 0 0 0 0 0 0
Wind_Speed
6 5 6 7 7 7 8 8 8 6 5 4 4 4 4 4 4 5 6 6 7 7 5 4 5 5 4 4 5 4 4 4 4 4 4 4 3 4 4 5 6 9 10
9 8 6 6 8 9 10 10 10 9 7 5 3 3 4 3 2 3 5 7 7 8 7 7 5 5 5 6 7 5 4 3 4 3 3 5 5 3 5 6 7 8 8
10 9 10 9 10 11 10 10 10 10 9 7 5 5 4 3 3 4 4 6 7 7 6 6 4 4 4 4 5 6 5 3 3 3 2 3 5 4 3 3 4 6 7
10 10 11 11 12 11 11 12 11 11 9 8 8 7 5 3 3 2 3 4 6 5 5 5 5 5 5 5 5 4 3 3 3 2 0 3 4 4 4 2 2 5 6
11 11 11 12 11 11 11 10 11 10 8 8 8 7 5 3 3 4 5 5 5 6 7 7 6 5 4 4 3 3 3 1 1 2 2 3 3 4 4 5 4 4 5
12 12 11 10 10 10 10 10 10 8 7 7 6 6 6 6 6 5 5 5 4 5 6 6 4 4 3 2 2 2 2 2 3 2 2 2 3 4 4 5 6 6 6
13 14 12 10 9 10 9 9 10 8 6 7 7 7 7 7 7 5 5 5 4 4 5 5 4 3 3 3 4 4 4 4 4 4 3 3 4 4 5 6 7 7 5
12 13 11 10 9 9 8 8 8 7 7 7 7 7 7 5 4 5 3 3 2 2 3 3 3 4 4 4 4 3 4 4 4 5 5 4 5 4 5 5 6 7 5
15 14 12 10 9 8 7 7 7 7 6 7 7 6 5 5 4 3 2 1 2 3 4 4 4 4 4 4 4 3 4 5 4 5 5 5 5 5 6 5 5 6 7
15 13 11 10 10 8 7 7 7 5 5 5 5 4 4 3 3 2 3 3 3 3 4 5 5 5 4 3 3 3 3 4 5 5 7 6 5 6 6 6 6 6 6
15 13 11 11 9 7 7 6 6 5 5 4 3 3 2 2 1 2 3 4 4 4 4 4 5 4 2 1 2 3 5 6 7 8 8 9 8 6 6 6 6 6 6
14 14 13 11 9 7 6 5 5 5 4 3 2 2 1 2 2 3 4 4 5 5 4 4 4 3 2 2 2 4 6 7 9 10 9 11 8 8 7 6 7 6 7
15 13 11 10 8 6 5 5 4 4 4 3 2 2 3 3 4 4 4 4 4 4 4 4 4 3 4 4 4 4 6 8 9 9 10 11 10 10 7 7 6 6 6
15 13 10 7 6 6 6 6 4 3 3 2 1 2 4 4 4 3 4 4 4 4 4 4 5 5 5 5 4 5 6 8 9 9 9 10 10 10 8 6 6 5 6
14 13 9 6 6 6 6 5 4 3 2 2 3 4 5 5 4 4 5 5 4 5 5 5 6 6 5 5 5 5 7 8 9 10 9 9 13 13 9 8 7 7 7
13 11 9 8 7 6 4 3 3 4 4 4 5 5 4 4 5 5 6 5 5 5 6 6 7 7 5 4 6 8 7 8 9 10 10 11 10 11 14 17 17 16 14
12 10 9 8 6 4 3 2 3 4 4 3 4 4 4 5 6 6 6 6 5 5 7 7 6 6 4 5 9 14 9 8 9 9 8 10 9 9 8 15 19 17 21
11 10 8 6 4 3 1 1 4 5 4 3 4 5 5 6 7 7 7 6 5 5 5 6 6 4 4 7 10 16 9 8 10 10 9 9 8 9 12 13 13 13 14
9 8 7 6 4 2 1 3 5 4 4 5 6 7 7 7 8 8 7 5 4 3 4 4 5 3 3 7 12 15 8 8 10 10 9 8 8 13 16 12 13 14 13
7 8 6 5 3 2 3 3 4 4 5 6 7 7 7 7 8 8 6 3 1 4 5 6 4 3 3 8 13 16 6 7 9 9 9 12 11 15 14 10 11 12 11
8 8 6 4 3 4 4 4 4 4 6 6 6 6 6 6 5 4 4 5 6 6 6 5 4 4 5 9 14 18 9 8 9 8 8 8 13 15 13 11 9 12 11
8 6 4 3 5 5 4 3 4 5 5 5 6 7 7 6 7 8 8 7 6 5 5 5 6 5 6 8 13 18 17 15 9 9 8 9 14 14 11 9 13 14 7
5 4 3 4 5 4 3 2 4 4 5 6 6 6 7 8 7 7 6 5 4 4 4 4 5 7 6 8 13 15 18 19 11 9 14 15 14 10 7 11 15 9 3
4 2 2 2 2 1 1 1 2 4 5 6 5 5 7 7 6 5 4 4 4 4 5 6 6 7 7 8 9 9 10 14 11 9 11 13 10 7 7 9 8 6 5
2 2 2 1 0 1 1 1 3 5 6 5 5 6 6 5 4 3 3 3 2 3 5 6 6 7 8 10 15 11 9 9 10 9 5 5 5 5 5 6 6 6 5
2 2 1 1 1 1 2 3 3 5 5 5 6 5 5 4 3 3 4 5 6 8 8 9 9 6 9 14 16 18 19 17 16 8 6 6 6 5 5 6 6 6 6
Wind_Direction
125 105 85 76 72 66 69 69 74 67 72 69 67 65 56 41 37 33 30 32 32 31 39 26 20 19 21 8 0 357 353 1 357 1 334 318 333 344 348 349 341 331 332
119 120 109 93 90 89 83 73 70 65 61 65 67 76 83 64 52 26 27 28 30 29 40 37 32 24 21 20 17 16 2 357 17 19 342 327 327 346 353 342 328 327 331
118 111 108 106 103 98 94 90 82 74 66 64 64 57 54 44 27 19 21 19 32 40 48 46 45 38 45 37 31 31 28 2 1 20 3 319 291 309 279 306 312 339 331
113 104 105 106 103 101 97 90 85 80 73 71 73 72 69 58 22 12 19 17 28 33 38 32 33 36 43 46 38 49 34 19 349 338 298 245 259 282 289 254 286 300 300
121 112 108 108 104 99 93 88 84 78 74 73 75 73 64 48 21 16 17 9 11 28 38 44 42 38 36 36 30 23 17 355 301 282 272 276 274 258 278 289 279 273 269
121 114 109 104 97 91 87 84 81 73 69 72 72 76 72 57 42 27 17 11 13 28 33 40 41 36 23 8 353 345 359 341 317 302 279 264 263 278 278 286 294 283 277
130 123 116 106 98 88 85 84 82 71 62 63 60 64 67 61 51 40 36 30 16 7 2 11 9 4 351 344 339 334 335 326 317 301 288 269 251 253 264 277 287 288 282
133 127 123 118 108 96 89 84 79 68 57 58 57 57 58 56 48 44 42 27 354 328 339 350 349 338 330 333 335 326 323 326 318 317 313 303 287 275 268 270 286 295 284
134 130 127 121 109 98 87 83 79 68 62 72 77 67 65 65 57 49 38 4 322 322 341 333 330 323 327 335 344 340 332 331 325 314 308 300 289 285 279 270 265 274 289
135 135 129 115 103 98 92 82 80 80 80 88 89 88 74 68 58 31 354 326 313 316 323 324 318 317 329 344 359 336 327 329 309 299 293 286 277 278 276 269 264 257 272
139 133 122 112 109 103 93 83 82 83 83 96 96 84 65 47 14 333 316 314 312 313 309 304 306 308 307 321 350 323 317 313 306 306 304 294 285 280 277 276 271 260 259
135 128 122 117 111 103 95 90 93 91 93 102 96 64 21 351 339 322 315 318 319 317 305 297 297 278 217 217 271 300 305 301 306 308 305 298 295 286 282 277 266 262 260
126 121 116 113 110 106 96 86 87 95 92 87 74 6 341 338 330 321 311 306 308 317 319 306 287 249 231 238 255 280 291 297 302 303 301 298 296 294 286 277 271 270 276
125 121 119 119 115 104 90 79 72 75 79 66 17 314 301 301 303 305 292 283 290 305 312 303 285 265 253 250 265 282 289 292 299 301 299 296 294 291 287 287 280 281 285
127 127 127 120 104 90 81 74 61 47 29 342 313 290 284 292 304 300 279 275 292 298 296 294 288 281 270 246 254 286 290 290 298 304 306 303 308 316 321 318 307 297 287
130 127 119 107 96 90 79 57 18 349 334 314 297 294 300 300 296 278 268 283 300 296 294 290 284 284 287 267 309 318 300 300 302 304 308 311 309 322 329 321 311 299 291
125 117 110 105 103 109 104 45 331 311 300 282 282 296 303 295 284 274 272 286 290 284 292 294 300 304 319 358 348 336 327 310 303 300 303 314 316 324 318 316 309 299 292
118 115 114 119 142 150 115 323 297 282 255 255 276 284 283 280 280 282 277 278 275 279 296 318 339 1 26 13 348 340 328 305 300 299 297 301 307 318 324 314 305 300 299
123 126 136 149 144 127 292 295 284 262 256 262 268 268 267 268 271 273 273 266 266 307 356 11 13 15 348 349 340 337 317 310 308 305 304 310 312 320 325 318 310 308 307
121 127 132 117 113 236 261 270 269 267 271 272 271 274 277 277 273 275 286 286 30 46 44 26 6 355 328 328 334 338 321 316 315 312 310 317 318 324 324 316 312 311 312
113 114 121 131 207 243 250 266 284 285 279 289 301 312 319 319 323 350 16 49 65 53 32 7 348 342 330 330 335 337 334 322 316 314 313 311 317 322 317 317 316 313 310
103 119 143 206 246 250 240 268 286 282 303 328 342 346 357 23 53 64 61 59 56 41 12 355 345 329 321 327 330 332 331 328 316 311 311 312 319 324 323 328 329 327 330
140 153 182 233 264 260 222 252 287 311 346 1 1 10 40 50 57 66 62 53 42 30 5 352 337 327 326 330 334 333 331 331 329 318 322 328 330 335 338 339 341 345 10
144 147 179 229 281 292 156 208 326 17 32 25 21 40 60 59 52 57 61 58 36 18 359 350 339 332 338 348 345 336 329 329 331 328 325 327 334 354 351 347 353 0 27
139 143 143 101 328 255 298 354 42 53 43 39 44 51 67 78 64 52 45 49 17 25 21 360 341 339 350 345 336 333 332 334 334 328 327 341 348 4 8 359 2 9 27
118 103 38 16 339 356 15 33 71 72 68 60 52 58 72 75 61 34 4 348 347 4 36 18 6 347 340 334 337 341 341 341 343 348 348 354 2 14 20 9 7 17 34